TimeMDT,TemperatureF,Dew PointF,Humidity,Sea Level PressureIn,VisibilityMPH,Wind Direction,Wind SpeedMPH,Gust SpeedMPH,PrecipitationIn,Events,Conditions,WindDirDegrees,DateUTC
12:53 AM,60.1,33.1,36,30.00,10.0,SE,11.5,17.3,N/A,,Clear,140,2013-05-08 06:53:00
1:53 AM,60.1,32.0,35,30.00,10.0,ESE,8.1,-,N/A,,Clear,110,2013-05-08 07:53:00
2:53 AM,55.9,33.1,42,30.01,10.0,SSE,3.5,-,N/A,,Clear,150,2013-05-08 08:53:00
3:53 AM,55.9,33.1,42,30.01,10.0,East,10.4,-,N/A,,Clear,90,2013-05-08 09:53:00
4:53 AM,50.0,34.0,54,30.04,10.0,North,3.5,-,N/A,,Clear,350,2013-05-08 10:53:00
5:53 AM,46.0,34.0,63,30.05,10.0,NNW,3.5,-,N/A,,Clear,330,2013-05-08 11:53:00
6:53 AM,44.1,34.0,68,30.07,10.0,NW,4.6,-,N/A,,Clear,310,2013-05-08 12:53:00
7:53 AM,51.1,37.0,59,30.08,10.0,Calm,Calm,-,N/A,,Clear,0,2013-05-08 13:53:00
8:53 AM,54.0,37.9,55,30.08,10.0,Calm,Calm,-,N/A,,Clear,0,2013-05-08 14:53:00
9:53 AM,59.0,39.0,48,30.07,10.0,SSE,4.6,-,N/A,,Clear,160,2013-05-08 15:53:00
10:53 AM,64.0,37.9,38,30.05,10.0,Calm,Calm,-,N/A,,Clear,0,2013-05-08 16:53:00
11:53 AM,69.1,37.9,32,30.04,10.0,Variable,5.8,-,N/A,,Clear,0,2013-05-08 17:53:00
12:53 PM,72.0,39.0,30,30.02,10.0,Calm,Calm,-,N/A,,Clear,0,2013-05-08 18:53:00
1:53 PM,75.0,37.0,25,30.00,10.0,NE,4.6,-,N/A,,Clear,50,2013-05-08 19:53:00
2:53 PM,79.0,37.0,22,29.99,10.0,Variable,3.5,-,N/A,,Clear,0,2013-05-08 20:53:00
3:53 PM,79.0,30.9,17,29.97,10.0,Variable,3.5,-,N/A,,Clear,0,2013-05-08 21:53:00
4:53 PM,79.0,32.0,18,29.96,10.0,Calm,Calm,-,N/A,,Clear,0,2013-05-08 22:53:00
5:53 PM,80.1,34.0,19,29.96,10.0,North,9.2,-,N/A,,Clear,10,2013-05-08 23:53:00
6:53 PM,79.0,30.9,17,29.96,10.0,North,12.7,-,N/A,,Clear,10,2013-05-09 00:53:00
7:53 PM,75.9,34.0,22,29.96,10.0,North,9.2,-,N/A,,Clear,10,2013-05-09 01:53:00
8:53 PM,71.1,37.0,29,29.97,10.0,NNE,10.4,-,N/A,,Clear,20,2013-05-09 02:53:00
9:53 PM,64.9,37.9,37,30.00,10.0,NW,3.5,-,N/A,,Clear,310,2013-05-09 03:53:00
10:53 PM,61.0,36.0,39,30.02,10.0,SE,5.8,-,N/A,,Clear,130,2013-05-09 04:53:00
11:53 PM,55.9,36.0,47,30.03,10.0,SE,3.5,-,N/A,,Clear,140,2013-05-09 05:53:00